Location: Sears
(37.7625°N, 100.1060°W)
Time: 07:27:40
(UTC+00:00)

Hubble Space Telescope - Pass Details

Date: 31 July 2021
Orbit: 535 x 539 km, 28.5° (Epoch: 24 September)

Event Time Altitude Azimuth Distance (km) Brightness Sun altitude
Rises 03:34:39 0° 252° (WSW) 2,668 4.7 -18.1°
Reaches altitude 10° 03:38:21 10° 218° (SW) 1,775 3.4 -18.6°
Enters shadow 03:39:18 11° 205° (SSW) 1,692 3.1 -18.8°
